ROMMA est une association bénévole à but non lucratif. Votre soutien est indispensable : ADHERER à ROMMA ou FAIRE un DON

Briord - (01, Ain)

Bugey (281 m)   Longitude: 05° 29' 13" E   Latitude: 45° 46' 37" N Station partenaire n°15
 

Détail journalier du     <<     >>

Température Precipitation Humidité Pression Vent Dir Rafale Dir. rafale Ensol.
Heure (°C) (mm) (%) (hPa) (km/h) (km/h) (min)
01:00 8.6091100900---0
02:00 7.80.291100800---0
03:00 6.3091100800---0
04:00 6.0093100800---0
05:00 4.8092100800---0
06:00 4.9094100800---0
07:00 5.6095100800---0
08:00 6.2095100900---40
09:00 7.6090100903ONO45
10:00 8.5088100903O20
11:00 9.8087100903NNO15
12:00 13.1076100905NO50
13:00 15.006710081SO8SO45
14:00 14.8064100810NO27O0
15:00 16.806010088NO27NO15
16:00 16.6054100713NO34NNO20
17:00 16.5053100714NO45ONO0
18:00 16.1059100713NO32NNO25
19:00 14.9068100815NO35NO25
20:00 14.1065100813NO31NO20
21:00 12.2073100910NO31NNO0
22:00 11.807910105NO15NNO0
23:00 11.807410105NO16NNO0
minuit 11.108110106NO18NO0

Graphique du 10-04-2019

 

Serveur OMMA